[[{"header":{"parameterUnit":"m.s-1","parameterCategory":1,"la1":30.2991,"la2":30.254,"lo1":-89.0895,"lo2":-89.0444,"dy":0.0017,"dx":0.0017,"nx":28,"ny":28,"refTime":"2024-08-12T21:00:00:Z","depth":0,"parameterNumber":2,"parameterNumberName":"U-component_of_WINDS"},"data":[0,0,0,0,0,0,0,0,0,0,0,0,0,0,0,0,0,0,0,0,0,0,0,0,0,0,0,0,0,0,0,0,0,0,0,0,0,0,0,0,0,0,0,0,0,0,0,0,0,0,0,0,0,0,0,0,0,0,1.1739,1.174,0,1.185,1.1852,1.1853,1.1821,1.1818,1.1816,1.1814,1.1936,1.1941,1.1946,0,0,0,0,0,0,0,0,0,0,0,0,0,1.1505,1.1509,1.1739,1.174,1.1741,1.185,1.1852,1.1853,1.1821,1.1818,1.1815,1.1813,1.1934,1.194,1.1947,0,0,0,0,0,0,0,0,0,0,0,0,0,1.1611,1.1511,1.1738,1.1738,1.1739,1.185,1.1852,1.1854,1.1822,1.1818,1.1815,1.1811,1.1932,1.194,1.1948,1.2068,0,0,1.1973,1.1976,0,0,0,0,0,0,0,0,1.1605,1.1619,1.1737,1.1738,1.174,1.1818,1.1814,1.1926,1.1822,1.1791,1.1814,1.181,1.19,1.191,1.1939,1.2073,1.2079,1.1973,1.1978,1.1982,1.1984,0,0,0,0,0,0,0,1.1597,1.1614,1.1783,1.1739,1.174,1.1735,1.1746,1.1835,1.1864,1.1793,1.1791,1.1804,1.19,1.1932,1.1942,1.208,1.1973,1.198,1.1985,1.1989,1.232,1.2324,0,0,0,0,0,0,1.1588,1.1608,1.1779,1.1786,1.1662,1.1742,1.1754,1.1796,1.1863,1.1869,1.1807,1.1802,1.1919,1.1932,1.1946,1.2092,1.1982,1.1989,1.1994,1.2316,1.2321,1.2325,0,0,0,0,0,0,1.1583,1.1603,1.1775,1.1697,1.1718,1.175,1.1797,1.18,1.1832,1.1873,1.1879,1.1833,1.1917,1.1935,1.2038,1.2096,1.1993,1.2,1.2312,1.2318,1.2323,1.2384,0,0,0,0,0,0,1.1576,1.1602,1.1646,1.1698,1.1722,1.1863,1.1801,1.1805,1.1845,1.184,1.1899,1.1906,1.1916,1.2026,1.2046,1.2105,1.2007,1.2307,1.2315,1.2321,1.2377,1.2392,1.2404,0,0,0,0,0,1.1568,1.166,1.1648,1.1669,1.1778,1.1866,1.188,1.1887,1.185,1.1896,1.1922,1.1904,1.2086,1.2036,1.2059,1.2122,1.2303,1.2312,1.2321,1.2371,1.2389,1.2403,0,0,0,0,0,0,1.1617,1.1667,1.1655,1.1765,1.1811,1.186,1.1918,1.1905,1.1965,1.1958,1.1967,1.1981,1.2086,1.2114,1.2058,1.2242,1.2189,1.2203,1.222,1.2237,1.225,1.2242,1.2014,0,0,0,0,0,1.164,1.1705,1.1746,1.184,1.1863,1.1887,1.1926,1.1927,1.1976,1.1996,1.203,1.208,1.2149,1.2194,1.2259,1.238,1.2394,1.2435,1.2448,1.2459,1.2471,1.2539,1.2558,1.2355,1.2354,1.2354,0,0,1.169,1.1725,1.1766,1.1851,1.1887,1.1956,1.1904,1.1979,1.2032,1.2008,1.2107,1.2134,1.2191,1.2304,1.2355,1.233,1.253,1.247,1.2478,1.2485,1.255,1.2569,1.2587,1.2361,1.2359,1.2359,0,0,1.1816,1.1848,1.193,1.1967,1.2021,1.2035,1.2055,1.2106,1.2122,1.2221,1.2205,1.2269,1.2386,1.2427,1.2464,1.2605,1.2592,1.2627,1.2697,1.2763,1.2779,1.2793,1.2846,1.2864,1.2638,1.2639,1.2639,0,1.1872,1.1973,1.1975,1.2052,1.2091,1.207,1.2155,1.2191,1.2265,1.2293,1.2263,1.241,1.2447,1.257,1.2604,1.2634,1.2659,1.2621,1.2776,1.279,1.2804,1.2854,1.2874,1.2643,1.2642,1.2642,1.2641,0,1.204,1.2111,1.2171,1.224,1.2286,1.2367,1.2383,1.2429,1.2427,1.2445,1.2547,1.259,1.2664,1.2693,1.2692,1.2817,1.28,1.2773,1.2721,1.2827,1.2875,1.2894,1.2648,1.2647,1.2646,1.2645,0,0,1.2202,1.227,1.2292,1.2324,1.2381,1.2437,1.2518,1.2588,1.2628,1.268,1.2749,1.2848,1.2824,1.2865,1.2869,1.2926,1.3038,1.2893,1.2894,1.292,1.318,1.3201,1.3223,1.3028,1.3032,1.3034,1.3176,0,1.2335,1.2473,1.2478,1.2606,1.2673,1.2654,1.2724,1.2768,1.2788,1.285,1.2872,1.2943,1.2904,1.2929,1.2985,1.3012,1.3091,1.3002,1.3096,1.3099,1.3084,1.3248,1.3271,1.3402,1.3194,1.3197,1.32,0,1.2508,1.2562,1.2697,1.2745,1.2773,1.2836,1.2901,1.2959,1.301,1.302,1.3066,1.3061,1.3146,1.3089,1.3207,1.3147,1.3186,1.3205,1.321,1.3221,1.3157,1.3266,1.3444,1.3465,1.3228,1.3226,1.3224,0,1.2615,1.2722,1.2816,1.2844,1.2902,1.2947,1.2974,1.3021,1.3063,1.312,1.3148,1.3215,1.3253,1.3306,1.332,1.3277,1.344,1.3383,1.3453,1.3453,1.349,1.3488,1.368,1.3511,1.3511,1.3511,1.351,0,1.2764,1.2848,1.2865,1.2924,1.3018,1.3022,1.3116,1.314,1.3181,1.3246,1.3234,1.3295,1.3309,1.3374,1.3385,1.3483,1.35,1.3513,1.3515,1.3515,1.3514,1.3542,1.3534,1.3516,1.3515,1.3514,1.3513,0,1.2901,1.2915,1.3017,1.3063,1.3077,1.3144,1.3185,1.3242,1.3259,1.3342,1.3361,1.339,1.3465,1.3484,1.3575,1.3583,1.3699,1.3692,1.3681,1.3682,1.3751,1.3745,1.3969,1.4,1.381,1.3811,1.3813,0,1.2996,1.3059,1.3111,1.3152,1.3181,1.3247,1.329,1.3297,1.3342,1.3404,1.3455,1.3528,1.3588,1.371,1.374,1.381,1.3806,1.388,1.3817,1.3815,1.381,1.3807,1.3814,1.3893,1.3895,1.3896,1.3898,0,1.3164,1.3168,1.3227,1.3291,1.3341,1.3391,1.3439,1.3475,1.3489,1.354,1.3616,1.3662,1.3754,1.3828,1.3898,1.3928,1.3917,1.3917,1.3937,1.3939,1.3931,1.3938,1.3716,1.3912,1.3911,1.391,1.3909,1.3908,1.3284,1.334,1.3385,1.3453,1.3489,1.3535,1.3591,1.3614,1.3677,1.3751,1.3751,1.3835,1.3885,1.3977,1.4012,1.4079,1.4056,1.4085,1.4093,1.4101,1.4108,1.3918,1.4091,1.4091,1.409,1.409,1.409,0,1.3453,1.3481,1.3543,1.361,1.3664,1.3644,1.3697,1.3744,1.3816,1.3863,1.3921,1.4009,1.4081,1.4116,1.4188,1.4235,1.4231,1.4253,1.4251,1.4259,1.4122,1.4098,1.4255,1.4255,1.4255,1.4255,1.4255,1.4255,1.3548,1.3642,1.3651,1.3764,1.3792,1.3871,1.3903,1.3946,1.3983,1.4081,1.4139,1.4161,1.4204,1.4278,1.4344,1.4353,1.4381,1.4406,1.4413,1.4285,1.4268,1.4252,1.423,1.4412,1.4412,1.4544,1.4545,1.4546]},{"header":{"parameterUnit":"m.s-1","parameterCategory":1,"la1":30.2991,"la2":30.254,"lo1":-89.0895,"lo2":-89.0444,"dy":0.0017,"dx":0.0017,"nx":28,"ny":28,"refTime":"2024-08-12T21:00:00:Z","depth":0,"parameterNumber":3,"parameterNumberName":"V-component_of_WINDS"},"data":[0,0,0,0,0,0,0,0,0,0,0,0,0,0,0,0,0,0,0,0,0,0,0,0,0,0,0,0,0,0,0,0,0,0,0,0,0,0,0,0,0,0,0,0,0,0,0,0,0,0,0,0,0,0,0,0,0,0,1.6479,1.6479,0,1.6496,1.6497,1.6497,1.6474,1.6473,1.6472,1.6471,1.6488,1.6489,1.6491,0,0,0,0,0,0,0,0,0,0,0,0,0,1.6421,1.6422,1.6479,1.6479,1.6479,1.6496,1.6497,1.6497,1.6474,1.6473,1.6472,1.6471,1.6488,1.6489,1.6491,0,0,0,0,0,0,0,0,0,0,0,0,0,1.6443,1.6423,1.6479,1.647,1.6469,1.6496,1.6497,1.6497,1.6474,1.6473,1.6472,1.6471,1.6487,1.6489,1.6491,1.6527,0,0,1.6497,1.6497,0,0,0,0,0,0,0,0,1.6442,1.6445,1.6471,1.647,1.647,1.6482,1.6483,1.6507,1.6475,1.6472,1.6471,1.647,1.6487,1.6489,1.6495,1.6528,1.6529,1.6497,1.6498,1.6499,1.6499,0,0,0,0,0,0,0,1.644,1.6444,1.6486,1.6471,1.6471,1.6464,1.6466,1.6487,1.6486,1.6472,1.6471,1.6473,1.6486,1.6493,1.6495,1.6529,1.6497,1.6498,1.6499,1.65,1.6589,1.659,0,0,0,0,0,0,1.644,1.6443,1.6485,1.6486,1.6453,1.6466,1.6468,1.6479,1.6486,1.6486,1.6474,1.6472,1.6491,1.6493,1.6496,1.6535,1.6499,1.65,1.6501,1.6587,1.6589,1.659,0,0,0,0,0,0,1.6439,1.6444,1.6484,1.6464,1.6469,1.6468,1.6481,1.648,1.6487,1.6488,1.6487,1.6482,1.649,1.6493,1.6519,1.6536,1.6501,1.6503,1.6586,1.6588,1.6589,1.6618,0,0,0,0,0,0,1.6438,1.6444,1.6459,1.6465,1.647,1.6508,1.6482,1.6481,1.649,1.6487,1.6494,1.6494,1.6489,1.6516,1.6521,1.6538,1.6504,1.6584,1.6587,1.6589,1.6615,1.662,1.6625,0,0,0,0,0,1.6436,1.6467,1.646,1.6465,1.6489,1.651,1.6512,1.6506,1.6492,1.6506,1.6506,1.6494,1.6534,1.6519,1.6524,1.6542,1.6583,1.6586,1.6589,1.6613,1.6619,1.6624,0,0,0,0,0,0,1.6463,1.6467,1.646,1.6494,1.6501,1.6506,1.6523,1.6514,1.6525,1.6522,1.6514,1.6516,1.6542,1.6545,1.6529,1.6575,1.6556,1.656,1.6572,1.6578,1.6583,1.6581,1.6506,0,0,0,0,0,1.6473,1.6491,1.6493,1.6523,1.6527,1.6524,1.6533,1.6528,1.6535,1.6538,1.654,1.6547,1.6561,1.657,1.6583,1.6616,1.6615,1.663,1.6635,1.6639,1.6642,1.6656,1.6661,1.6599,1.6599,1.6599,0,0,1.6494,1.6498,1.651,1.6528,1.6533,1.655,1.6527,1.6547,1.6558,1.6541,1.6565,1.6566,1.6573,1.6602,1.6614,1.6604,1.6659,1.6642,1.6645,1.6646,1.6659,1.6665,1.667,1.6601,1.6601,1.6601,0,0,1.654,1.6546,1.657,1.6575,1.6583,1.6581,1.6586,1.6591,1.6591,1.6615,1.6602,1.6615,1.664,1.6644,1.6649,1.6694,1.6682,1.6698,1.6722,1.6736,1.6741,1.6745,1.6758,1.6763,1.6701,1.6702,1.6702,0,1.6565,1.659,1.6583,1.6602,1.6609,1.6594,1.6617,1.6622,1.6634,1.6638,1.6627,1.6656,1.666,1.6687,1.6697,1.6704,1.6708,1.6697,1.6741,1.6745,1.6749,1.6761,1.6766,1.6703,1.6703,1.6703,1.6703,0,1.6618,1.6635,1.6654,1.6664,1.6673,1.6694,1.6689,1.6699,1.6692,1.669,1.6713,1.6717,1.6729,1.6735,1.6729,1.6761,1.6754,1.6742,1.6722,1.6756,1.6768,1.6773,1.6706,1.6705,1.6705,1.6704,0,0,1.6683,1.6687,1.6694,1.6697,1.6703,1.6716,1.6735,1.6746,1.6753,1.6762,1.6775,1.6795,1.6783,1.679,1.6784,1.6796,1.6827,1.6782,1.6782,1.6788,1.6859,1.6866,1.6872,1.682,1.6821,1.6822,1.6857,0,1.6726,1.6759,1.6752,1.6784,1.6798,1.6782,1.6798,1.6803,1.6801,1.6812,1.681,1.6823,1.6808,1.6811,1.6823,1.6821,1.6841,1.6819,1.6831,1.6831,1.6827,1.6878,1.6886,1.692,1.6862,1.6862,1.6863,0,1.6781,1.679,1.6823,1.6823,1.6829,1.6844,1.6852,1.6863,1.6867,1.6865,1.687,1.6861,1.6878,1.6859,1.688,1.6865,1.687,1.6869,1.687,1.687,1.6848,1.6876,1.6931,1.6935,1.687,1.687,1.6869,0,1.6821,1.6841,1.6862,1.6866,1.6868,1.6878,1.688,1.6883,1.6889,1.6896,1.6899,1.6908,1.6913,1.6919,1.6912,1.6899,1.6933,1.6914,1.693,1.693,1.6936,1.6936,1.699,1.6943,1.6943,1.6943,1.6943,0,1.6869,1.6889,1.688,1.6893,1.6913,1.6905,1.6925,1.6925,1.6927,1.6938,1.6926,1.6937,1.6928,1.6937,1.6931,1.6948,1.6951,1.6948,1.6946,1.6948,1.6948,1.6949,1.6946,1.6944,1.6944,1.6944,1.6944,0,1.6917,1.6912,1.6933,1.6933,1.6933,1.6948,1.6947,1.6958,1.6955,1.6969,1.6972,1.6967,1.6977,1.6971,1.6981,1.6977,1.6998,1.6994,1.6997,1.6995,1.701,1.7008,1.7065,1.7071,1.7023,1.7023,1.7024,0,1.6946,1.6961,1.6962,1.6968,1.697,1.6981,1.6986,1.6978,1.6984,1.6988,1.6998,1.7007,1.7013,1.703,1.7026,1.7033,1.7028,1.7047,1.7029,1.7029,1.7025,1.7023,1.7023,1.7051,1.7051,1.7052,1.7052,0,1.6999,1.6995,1.7004,1.7011,1.7018,1.7023,1.7027,1.7033,1.7024,1.7031,1.7041,1.7046,1.7056,1.7064,1.7069,1.7069,1.7058,1.7058,1.7061,1.7063,1.7062,1.706,1.7005,1.7056,1.7056,1.7056,1.7055,1.7055,1.7037,1.7047,1.7049,1.7058,1.706,1.7064,1.7073,1.707,1.7078,1.7085,1.7079,1.709,1.7091,1.7097,1.7098,1.7106,1.7097,1.7103,1.7104,1.7105,1.7106,1.7063,1.7107,1.7107,1.7107,1.7107,1.7106,0,1.7086,1.7085,1.7094,1.7099,1.7106,1.7096,1.7099,1.7105,1.7114,1.7116,1.7122,1.7132,1.7139,1.7136,1.7141,1.7148,1.7143,1.7149,1.7148,1.7147,1.7115,1.711,1.7153,1.7153,1.7153,1.7153,1.7153,1.7153,1.7112,1.7129,1.7125,1.7142,1.7141,1.7151,1.7153,1.7156,1.7157,1.7168,1.7174,1.7171,1.717,1.7175,1.7181,1.7179,1.7181,1.7189,1.7185,1.7155,1.715,1.7146,1.7141,1.719,1.719,1.7217,1.7217,1.7218]}]]